Time,TemperatureF,DewpointF,PressureIn,WindDirection,WindDirectionDegrees,WindSpeedMPH,WindSpeedGustMPH,Humidity,HourlyPrecipIn,Conditions,Clouds,dailyrainin,SoftwareType,DateUTC
2013-12-11 00:10:00,23.0,16.0,30.11,West,276,4.0,5.0,74,0.00,,,0.00,weatherlink.com 1.10,2013-12-11 05:10:00,
2013-12-11 00:23:00,23.0,15.0,30.12,WNW,301,0.0,5.0,72,0.00,,,0.00,weatherlink.com 1.10,2013-12-11 05:23:00,
2013-12-11 00:45:00,22.7,15.0,30.12,WNW,284,1.0,4.0,72,0.00,,,0.00,weatherlink.com 1.10,2013-12-11 05:45:00,
2013-12-11 00:53:00,22.7,15.0,30.12,WNW,290,3.0,6.0,72,0.00,,,0.00,weatherlink.com 1.10,2013-12-11 05:53:00,
2013-12-11 01:08:00,22.6,15.0,30.13,WNW,288,0.0,9.0,72,0.00,,,0.00,weatherlink.com 1.10,2013-12-11 06:08:00,
2013-12-11 01:24:00,22.6,15.0,30.13,WNW,290,2.0,5.0,71,0.00,,,0.00,weatherlink.com 1.10,2013-12-11 06:24:00,
2013-12-11 01:40:00,22.5,15.0,30.14,NW,310,1.0,7.0,72,0.00,,,0.00,weatherlink.com 1.10,2013-12-11 06:40:00,
2013-12-11 01:54:00,22.3,14.0,30.14,West,260,0.0,6.0,71,0.00,,,0.00,weatherlink.com 1.10,2013-12-11 06:54:00,
2013-12-11 02:10:00,21.9,14.0,30.15,West,279,2.0,6.0,71,0.00,,,0.00,weatherlink.com 1.10,2013-12-11 07:10:00,
2013-12-11 02:25:00,21.8,14.0,30.16,West,269,0.0,5.0,71,0.00,,,0.00,weatherlink.com 1.10,2013-12-11 07:25:00,
2013-12-11 02:43:00,21.6,14.0,30.17,West,264,0.0,5.0,71,0.00,,,0.00,weatherlink.com 1.10,2013-12-11 07:43:00,
2013-12-11 03:04:00,21.3,14.0,30.18,NW,304,0.0,5.0,72,0.00,,,0.00,weatherlink.com 1.10,2013-12-11 08:04:00,
2013-12-11 03:15:00,21.1,14.0,30.18,SSW,201,1.0,2.0,73,0.00,,,0.00,weatherlink.com 1.10,2013-12-11 08:15:00,
2013-12-11 03:27:00,21.0,14.0,30.19,WSW,246,0.0,3.0,74,0.00,,,0.00,weatherlink.com 1.10,2013-12-11 08:27:00,
2013-12-11 03:44:00,21.0,14.0,30.20,WNW,286,0.0,3.0,74,0.00,,,0.00,weatherlink.com 1.10,2013-12-11 08:44:00,
2013-12-11 04:02:00,21.2,14.0,30.20,WNW,292,3.0,4.0,74,0.00,,,0.00,weatherlink.com 1.10,2013-12-11 09:02:00,
2013-12-11 04:22:00,21.1,14.0,30.20,WSW,256,0.0,5.0,73,0.00,,,0.00,weatherlink.com 1.10,2013-12-11 09:22:00,
2013-12-11 04:28:00,21.1,14.0,30.21,WSW,257,0.0,6.0,74,0.00,,,0.00,weatherlink.com 1.10,2013-12-11 09:28:00,
2013-12-11 04:50:00,21.1,14.0,30.21,West,280,2.0,8.0,73,0.00,,,0.00,weatherlink.com 1.10,2013-12-11 09:50:00,
2013-12-11 04:59:00,21.1,14.0,30.21,SW,222,0.0,5.0,73,0.00,,,0.00,weatherlink.com 1.10,2013-12-11 09:59:00,
2013-12-11 05:14:00,20.9,14.0,30.22,SW,218,0.0,5.0,73,0.00,,,0.00,weatherlink.com 1.10,2013-12-11 10:14:00,
2013-12-11 05:28:00,21.0,14.0,30.23,SSW,200,3.0,7.0,73,0.00,,,0.00,weatherlink.com 1.10,2013-12-11 10:28:00,
2013-12-11 05:43:00,20.9,14.0,30.24,SSW,198,3.0,8.0,74,0.00,,,0.00,weatherlink.com 1.10,2013-12-11 10:43:00,
2013-12-11 06:00:00,20.8,14.0,30.25,SW,218,1.0,5.0,75,0.00,,,0.00,weatherlink.com 1.10,2013-12-11 11:00:00,
2013-12-11 06:15:00,20.4,14.0,30.25,SW,229,1.0,5.0,76,0.00,,,0.00,weatherlink.com 1.10,2013-12-11 11:15:00,
2013-12-11 06:30:00,20.3,14.0,30.26,WNW,301,0.0,4.0,76,0.00,,,0.00,weatherlink.com 1.10,2013-12-11 11:30:00,
2013-12-11 06:45:00,20.2,14.0,30.26,West,261,0.0,4.0,76,0.00,,,0.00,weatherlink.com 1.10,2013-12-11 11:45:00,
2013-12-11 07:00:00,20.1,14.0,30.27,WNW,287,3.0,5.0,76,0.00,,,0.00,weatherlink.com 1.10,2013-12-11 12:00:00,
2013-12-11 07:15:00,20.0,14.0,30.28,WNW,289,3.0,6.0,76,0.00,,,0.00,weatherlink.com 1.10,2013-12-11 12:15:00,
2013-12-11 07:32:00,20.3,14.0,30.28,WNW,284,0.0,4.0,76,0.00,,,0.00,weatherlink.com 1.10,2013-12-11 12:32:00,
2013-12-11 07:47:00,20.3,14.0,30.29,SSW,206,5.0,6.0,76,0.00,,,0.00,weatherlink.com 1.10,2013-12-11 12:47:00,
2013-12-11 08:02:00,20.7,14.0,30.29,SSW,200,1.0,5.0,76,0.00,,,0.00,weatherlink.com 1.10,2013-12-11 13:02:00,
2013-12-11 08:17:00,21.2,14.0,30.29,WNW,286,2.0,7.0,75,0.00,,,0.00,weatherlink.com 1.10,2013-12-11 13:17:00,
2013-12-11 08:33:00,22.6,15.0,30.29,NE,45,0.0,7.0,73,0.00,,,0.00,weatherlink.com 1.10,2013-12-11 13:33:00,
2013-12-11 08:48:00,23.4,16.0,30.29,West,267,0.0,6.0,72,0.00,,,0.00,weatherlink.com 1.10,2013-12-11 13:48:00,
2013-12-11 09:03:00,24.1,16.0,30.30,NW,304,2.0,8.0,70,0.00,,,0.00,weatherlink.com 1.10,2013-12-11 14:03:00,
2013-12-11 09:18:00,24.8,16.0,30.30,WNW,301,0.0,8.0,69,0.00,,,0.00,weatherlink.com 1.10,2013-12-11 14:18:00,
2013-12-11 09:35:00,25.4,17.0,30.30,NW,307,2.0,5.0,69,0.00,,,0.00,weatherlink.com 1.10,2013-12-11 14:35:00,
2013-12-11 09:50:00,25.1,16.0,30.30,SW,230,1.0,12.0,67,0.00,,,0.00,weatherlink.com 1.10,2013-12-11 14:50:00,
2013-12-11 10:05:00,25.7,17.0,30.31,West,265,3.0,6.0,70,0.00,,,0.00,weatherlink.com 1.10,2013-12-11 15:05:00,
2013-12-11 10:20:00,26.7,17.0,30.31,WNW,292,3.0,6.0,67,0.00,,,0.00,weatherlink.com 1.10,2013-12-11 15:20:00,
2013-12-11 10:35:00,27.6,18.0,30.30,WNW,294,3.0,7.0,68,0.00,,,0.00,weatherlink.com 1.10,2013-12-11 15:35:00,
2013-12-11 10:52:00,27.9,17.0,30.29,SW,230,3.0,7.0,65,0.00,,,0.00,weatherlink.com 1.10,2013-12-11 15:52:00,
2013-12-11 11:07:00,28.6,18.0,30.29,West,264,1.0,8.0,66,0.00,,,0.00,weatherlink.com 1.10,2013-12-11 16:07:00,
2013-12-11 11:22:00,29.5,19.0,30.28,West,279,2.0,7.0,64,0.00,,,0.00,weatherlink.com 1.10,2013-12-11 16:22:00,
2013-12-11 11:37:00,30.5,20.0,30.28,NNW,329,3.0,8.0,65,0.00,,,0.00,weatherlink.com 1.10,2013-12-11 16:37:00,
2013-12-11 11:52:00,30.3,19.0,30.27,SSW,201,1.0,6.0,63,0.00,,,0.00,weatherlink.com 1.10,2013-12-11 16:52:00,
2013-12-11 12:09:00,29.9,19.0,30.26,SW,221,1.0,6.0,63,0.00,,,0.00,weatherlink.com 1.10,2013-12-11 17:09:00,
2013-12-11 12:23:00,29.5,18.0,30.26,WNW,291,0.0,8.0,63,0.00,,,0.00,weatherlink.com 1.10,2013-12-11 17:23:00,
2013-12-11 12:38:00,30.0,18.0,30.26,WNW,290,1.0,8.0,62,0.00,,,0.00,weatherlink.com 1.10,2013-12-11 17:38:00,
2013-12-11 12:53:00,29.2,18.0,30.25,SW,215,4.0,8.0,63,0.00,,,0.00,weatherlink.com 1.10,2013-12-11 17:53:00,
2013-12-11 13:10:00,29.0,18.0,30.24,West,272,2.0,5.0,63,0.00,,,0.00,weatherlink.com 1.10,2013-12-11 18:10:00,
2013-12-11 13:25:00,29.3,19.0,30.24,NW,323,0.0,7.0,65,0.00,,,0.00,weatherlink.com 1.10,2013-12-11 18:25:00,
2013-12-11 13:40:00,29.6,19.0,30.23,West,280,2.0,4.0,64,0.00,,,0.00,weatherlink.com 1.10,2013-12-11 18:40:00,
2013-12-11 13:55:00,29.9,19.0,30.23,WNW,284,4.0,5.0,63,0.00,,,0.00,weatherlink.com 1.10,2013-12-11 18:55:00,
2013-12-11 14:10:00,29.7,19.0,30.24,NW,312,0.0,4.0,65,0.00,,,0.00,weatherlink.com 1.10,2013-12-11 19:10:00,
2013-12-11 14:27:00,29.1,18.0,30.24,NW,308,2.0,6.0,64,0.00,,,0.00,weatherlink.com 1.10,2013-12-11 19:27:00,
2013-12-11 14:42:00,28.8,18.0,30.24,WNW,290,0.0,9.0,65,0.00,,,0.00,weatherlink.com 1.10,2013-12-11 19:42:00,
2013-12-11 14:57:00,28.9,19.0,30.24,WNW,297,3.0,5.0,66,0.00,,,0.00,weatherlink.com 1.10,2013-12-11 19:57:00,
2013-12-11 15:12:00,28.4,18.0,30.24,WNW,300,0.0,5.0,66,0.00,,,0.00,weatherlink.com 1.10,2013-12-11 20:12:00,
2013-12-11 15:27:00,28.2,18.0,30.23,SW,222,1.0,5.0,66,0.00,,,0.00,weatherlink.com 1.10,2013-12-11 20:27:00,
2013-12-11 15:43:00,28.1,19.0,30.24,NNW,340,0.0,2.0,68,0.00,,,0.00,weatherlink.com 1.10,2013-12-11 20:43:00,
2013-12-11 15:58:00,27.9,19.0,30.24,NNW,338,0.0,1.0,68,0.00,,,0.00,weatherlink.com 1.10,2013-12-11 20:58:00,
2013-12-11 16:13:00,27.5,18.0,30.23,West,267,0.0,1.0,68,0.00,,,0.00,weatherlink.com 1.10,2013-12-11 21:13:00,
2013-12-11 16:29:00,27.0,18.0,30.23,West,267,0.0,1.0,69,0.00,,,0.00,weatherlink.com 1.10,2013-12-11 21:29:00,
2013-12-11 16:44:00,26.6,18.0,30.23,West,267,0.0,2.0,70,0.00,,,0.00,weatherlink.com 1.10,2013-12-11 21:44:00,
2013-12-11 17:00:00,26.5,19.0,30.23,West,267,0.0,1.0,72,0.00,,,0.00,weatherlink.com 1.10,2013-12-11 22:00:00,
2013-12-11 17:15:00,26.2,19.0,30.23,WSW,255,3.0,3.0,73,0.00,,,0.00,weatherlink.com 1.10,2013-12-11 22:15:00,
2013-12-11 17:30:00,25.9,18.0,30.22,West,277,0.0,4.0,71,0.00,,,0.00,weatherlink.com 1.10,2013-12-11 22:30:00,
2013-12-11 17:45:00,25.6,17.0,30.23,WNW,286,0.0,4.0,70,0.00,,,0.00,weatherlink.com 1.10,2013-12-11 22:45:00,
2013-12-11 18:00:00,25.4,17.0,30.22,SSW,210,0.0,4.0,70,0.00,,,0.00,weatherlink.com 1.10,2013-12-11 23:00:00,
2013-12-11 18:17:00,25.2,17.0,30.22,WSW,237,0.0,3.0,70,0.00,,,0.00,weatherlink.com 1.10,2013-12-11 23:17:00,
2013-12-11 18:32:00,24.9,16.0,30.23,SW,225,0.0,2.0,70,0.00,,,0.00,weatherlink.com 1.10,2013-12-11 23:32:00,
2013-12-11 18:47:00,24.7,17.0,30.23,SW,219,0.0,3.0,71,0.00,,,0.00,weatherlink.com 1.10,2013-12-11 23:47:00,
2013-12-11 19:02:00,24.7,17.0,30.23,WSW,250,0.0,4.0,71,0.00,,,0.00,weatherlink.com 1.10,2013-12-12 00:02:00,
2013-12-11 19:17:00,24.9,17.0,30.23,SW,233,3.0,5.0,71,0.00,,,0.00,weatherlink.com 1.10,2013-12-12 00:17:00,
2013-12-11 19:33:00,24.8,16.0,30.23,SSW,205,2.0,4.0,70,0.00,,,0.00,weatherlink.com 1.10,2013-12-12 00:33:00,
2013-12-11 19:49:00,24.7,16.0,30.23,WSW,239,0.0,4.0,70,0.00,,,0.00,weatherlink.com 1.10,2013-12-12 00:49:00,
2013-12-11 20:04:00,24.6,16.0,30.22,West,279,1.0,5.0,70,0.00,,,0.00,weatherlink.com 1.10,2013-12-12 01:04:00,
2013-12-11 20:18:00,24.4,16.0,30.22,SW,229,1.0,3.0,71,0.00,,,0.00,weatherlink.com 1.10,2013-12-12 01:18:00,
2013-12-11 20:34:00,24.4,16.0,30.22,WSW,255,0.0,4.0,71,0.00,,,0.00,weatherlink.com 1.10,2013-12-12 01:34:00,
2013-12-11 20:48:00,24.2,16.0,30.23,WNW,303,0.0,4.0,71,0.00,,,0.00,weatherlink.com 1.10,2013-12-12 01:48:00,
2013-12-11 21:04:00,24.3,16.0,30.23,SW,229,0.0,5.0,72,0.00,,,0.00,weatherlink.com 1.10,2013-12-12 02:04:00,
2013-12-11 21:20:00,24.2,16.0,30.23,SW,228,0.0,6.0,71,0.00,,,0.00,weatherlink.com 1.10,2013-12-12 02:20:00,
2013-12-11 21:35:00,24.1,16.0,30.23,WSW,248,4.0,6.0,72,0.00,,,0.00,weatherlink.com 1.10,2013-12-12 02:35:00,
2013-12-11 21:50:00,23.9,16.0,30.23,WSW,245,0.0,4.0,72,0.00,,,0.00,weatherlink.com 1.10,2013-12-12 02:50:00,
2013-12-11 22:05:00,23.8,16.0,30.24,West,280,0.0,3.0,71,0.00,,,0.00,weatherlink.com 1.10,2013-12-12 03:05:00,
2013-12-11 22:20:00,23.6,15.0,30.24,West,271,0.0,4.0,71,0.00,,,0.00,weatherlink.com 1.10,2013-12-12 03:20:00,
2013-12-11 22:37:00,23.4,15.0,30.23,WNW,300,3.0,5.0,71,0.00,,,0.00,weatherlink.com 1.10,2013-12-12 03:37:00,
2013-12-11 22:52:00,23.4,15.0,30.24,WNW,284,2.0,5.0,71,0.00,,,0.00,weatherlink.com 1.10,2013-12-12 03:52:00,
2013-12-11 23:07:00,23.3,15.0,30.24,West,272,1.0,5.0,71,0.00,,,0.00,weatherlink.com 1.10,2013-12-12 04:07:00,
2013-12-11 23:22:00,23.2,15.0,30.24,WNW,292,1.0,5.0,71,0.00,,,0.00,weatherlink.com 1.10,2013-12-12 04:22:00,
2013-12-11 23:38:00,23.0,15.0,30.25,WNW,291,2.0,4.0,71,0.00,,,0.00,weatherlink.com 1.10,2013-12-12 04:38:00,
2013-12-11 23:53:00,22.7,15.0,30.24,WNW,288,3.0,4.0,71,0.00,,,0.00,weatherlink.com 1.10,2013-12-12 04:53:00,